Simultaneous Nadir Overpasses (SNOs) Predictions

Prediction of SNOs between NOAA-19 and NPP Satellite Orbit:

Table of predicted SNOs for the next 14.0 days since TLE Epoch: 8/28/2020
Index Date (NOAA-19) Time (NOAA-19) Lat,Lon (NOAA-19) SZA (NOAA-19 ) Date (NPP) Time (NPP) Lat,Lon (NPP) SZA (NPP ) Distance(km) Time Diff (sec)
1 09/11/2020 10:22:57 -79.07, 172.86 103.73 09/11/2020 10:24:08 -79.07, 172.92 103.76 1.39 71
2 09/11/2020 11:14:02 79.07, -19.92 76.29 09/11/2020 11:14:53 79.07, -19.77 76.26 3.32 51
3 09/11/2020 12:04:57 -79.08, 147.50 103.70 09/11/2020 12:05:38 -79.07, 147.53 103.73 1.36 41
4 09/11/2020 12:56:02 79.08, -45.28 76.31 09/11/2020 12:56:23 79.07, -45.16 76.29 2.75 21
5 09/11/2020 13:46:57 -79.10, 122.13 103.68 09/11/2020 13:47:08 -79.08, 122.14 103.70 2.70 11
6 09/11/2020 14:38:02 79.10, -70.65 76.34 09/11/2020 14:37:53 79.08, -70.56 76.32 3.12 9
7 09/11/2020 15:28:58 -79.08, 96.51 103.65 09/11/2020 15:28:39 -79.11, 96.49 103.62 3.24 19
8 09/11/2020 16:20:03 79.08, -96.27 76.37 09/11/2020 16:19:24 79.11, -96.20 76.40 3.75 39
9 09/11/2020 17:10:58 -79.10, 71.15 103.63 09/11/2020 17:10:09 -79.12, 71.10 103.59 1.98 49
10 09/11/2020 18:02:03 79.10,-121.63 76.39 09/11/2020 18:00:54 79.12,-121.60 76.43 2.07 69
